{"data":{"norad_id":57941,"intl_designator":"2023-148G","name":"STARLINK-30715","alt_names":[],"object_type":"PAYLOAD","status":"ACTIVE","operator":null,"country":"US","launch_date":"2023-09-25","launch_site_code":"AFWTR","launch_vehicle":null,"mission":null,"orbit_class":"UNKNOWN","rcs_meters":null,"size_class":null,"mass_kg":null,"dimensions":null,"purposes":["comms"],"wikipedia_slug":null,"has_3d_model":false,"image_url":null,"decayed_at":null,"tle_current":{"epoch":"2026-05-25T00:35:27.078144Z","epoch_age_seconds":73026,"freshness":"FRESH","line1":"1 57941U 23148G   26145.02461896 -.00000286  00000+0  24638-5 0  9992","line2":"2 57941  53.1611  19.4171 0001091 102.4397 257.6725 15.30194133150252","mean_motion":15.30194133,"eccentricity":0.0001091,"inclination_deg":53.1611,"raan_deg":19.4171,"arg_perigee_deg":102.4397,"mean_anomaly_deg":257.6725,"bstar":2.4638e-6,"rev_number":15025,"period_min":94.105706520834,"perigee_km":474.48488465779,"apogee_km":475.98028990173,"semimajor_km":6853.3695872798,"source":"CELESTRAK","updated_at":"2026-05-25T13:38:18.461378Z"}}}